Pauls Valley, OK

9:32 PM CDT on April 25, 2017 (GMT -0500)
Pauls Valley Municipal

Weather History for KPVJ - August, 2013

Change the Weather History Date:

Tuesday, August 6, 2013

  Actual Average (KADH) Record (KADH)
Temperature  
Mean Temperature 88 °F -  
Max Temperature 98 °F 93 °F 108 °F (1929)
Min Temperature 77 °F 69 °F 60 °F (1971)
Cooling Degree Days 22    
Growing Degree Days 38 (Base 50)    
Moisture  
Dew Point 67 °F    
Average Humidity 51    
Maximum Humidity 65    
Minimum Humidity 34    
Precipitation  
Precipitation 0.00 in - - ()
Sea Level Pressure  
Sea Level Pressure 29.85 in    
Wind  
Wind Speed 8 mph (South)    
Max Wind Speed 16 mph    
Max Gust Speed 23 mph    
Visibility 10 miles    
Events      
Averages and records for this station are not official NWS values.
T = Trace of Precipitation, MM = Missing Value Source: NWS Daily Summary

Daily Weather History Graph

Daily Weather History Graph

Search for Another Location

Airport or City:

Trip Planner

Search our weather history database for the weather conditions in past years. The results will help you decide how hot, cold, wet, or windy it might be!

Date:

Astronomy

Aug. 06, 2013 Rise Set
Actual Time 6:42 AM CDT 8:26 PM CDT
Civil Twilight 6:15 AM CDT 8:53 PM CDT
Nautical Twilight 5:42 AM CDT 9:26 PM CDT
Astronomical Twilight 5:07 AM CDT 10:00 PM CDT
Moon 6:32 AM CDT (8/6) 8:05 PM CDT (8/6)
Length of Visible Light 14h 37m
Length of Day
13h 43m
Waning Crescent, 0% of the Moon is Illuminated
Aug 6
Waning Crescent
Aug 6
New
Aug 14
First Quarter
Aug 20
Full
Aug 28
Last Quarter

Hourly Weather History & Observations

Time (CDT) Temp. Heat Index Dew Point Humidity Pressure Visibility Wind Dir Wind Speed Gust Speed Precip Events Conditions
12:15 AM 80.6 °F 83.2 °F 68.0 °F 65% 29.88 in 10.0 mi SSE 5.8 mph - N/A   Unknown
12:35 AM 80.6 °F 83.2 °F 68.0 °F 65% 29.88 in 10.0 mi SSE 8.1 mph - N/A   Unknown
12:55 AM 80.6 °F 83.2 °F 68.0 °F 65% 29.88 in 10.0 mi SSE 4.6 mph - N/A   Unknown
1:15 AM 80.6 °F 83.2 °F 68.0 °F 65% 29.89 in 10.0 mi SSE 3.5 mph - N/A   Unknown
1:35 AM 80.6 °F 83.2 °F 68.0 °F 65% 29.88 in 10.0 mi South 5.8 mph - N/A   Unknown
1:55 AM 80.6 °F 82.7 °F 66.2 °F 61% 29.87 in 10.0 mi South 6.9 mph - N/A   Unknown
2:15 AM 78.8 °F - 66.2 °F 65% 29.86 in 10.0 mi South 9.2 mph - N/A   Unknown
2:35 AM 80.6 °F 82.3 °F 64.4 °F 58% 29.87 in 10.0 mi SSE 4.6 mph - N/A   Unknown
2:55 AM 80.6 °F 82.3 °F 64.4 °F 58% 29.86 in 10.0 mi SSE 6.9 mph - N/A   Unknown
3:15 AM 80.6 °F 81.8 °F 62.6 °F 54% 29.86 in 10.0 mi South 6.9 mph - N/A   Unknown
3:35 AM 78.8 °F - 64.4 °F 61% 29.86 in 10.0 mi South 5.8 mph - N/A   Unknown
3:55 AM 78.8 °F - 62.6 °F 57% 29.86 in 10.0 mi South 4.6 mph - N/A   Unknown
4:15 AM 80.6 °F 81.8 °F 62.6 °F 54% 29.86 in 10.0 mi South 5.8 mph - N/A   Unknown
4:35 AM 78.8 °F - 62.6 °F 57% 29.85 in 10.0 mi South 6.9 mph - N/A   Unknown
4:55 AM 78.8 °F - 62.6 °F 57% 29.85 in 10.0 mi South 9.2 mph - N/A   Unknown
5:15 AM 78.8 °F - 62.6 °F 57% 29.85 in 10.0 mi South 8.1 mph - N/A   Unknown
5:35 AM 78.8 °F - 62.6 °F 57% 29.85 in 10.0 mi South 8.1 mph - N/A   Unknown
5:55 AM 77.0 °F - 62.6 °F 61% 29.86 in 10.0 mi South 5.8 mph - N/A   Unknown
6:15 AM 77.0 °F - 64.4 °F 65% 29.86 in 10.0 mi SSE 6.9 mph - N/A   Unknown
6:35 AM 77.0 °F - 64.4 °F 65% 29.87 in 10.0 mi South 6.9 mph - N/A   Unknown
6:55 AM 77.0 °F - 64.4 °F 65% 29.87 in 10.0 mi South 5.8 mph - N/A   Unknown
7:15 AM 77.0 °F - 64.4 °F 65% 29.87 in 10.0 mi South 6.9 mph - N/A   Unknown
7:35 AM 77.0 °F - 64.4 °F 65% 29.88 in 10.0 mi South 8.1 mph - N/A   Unknown
7:55 AM 78.8 °F - 66.2 °F 65% 29.88 in 10.0 mi South 8.1 mph - N/A   Unknown
8:15 AM 80.6 °F 83.2 °F 68.0 °F 65% 29.88 in 10.0 mi South 9.2 mph - N/A   Unknown
8:35 AM 80.6 °F 83.2 °F 68.0 °F 65% 29.88 in 10.0 mi South 10.4 mph - N/A   Unknown
8:55 AM 82.4 °F 85.4 °F 68.0 °F 62% 29.88 in 10.0 mi SSW 15.0 mph - N/A   Unknown
9:15 AM 84.2 °F 87.3 °F 68.0 °F 58% 29.88 in 10.0 mi SSW 11.5 mph - N/A   Unknown
9:35 AM 86.0 °F 90.4 °F 69.8 °F 58% 29.88 in 10.0 mi SSW 12.7 mph 17.3 mph N/A   Unknown
9:55 AM 86.0 °F 90.4 °F 69.8 °F 58% 29.88 in 10.0 mi SW 11.5 mph 18.4 mph N/A   Unknown
10:15 AM 86.0 °F 90.4 °F 69.8 °F 58% 29.88 in 10.0 mi SW 9.2 mph 18.4 mph N/A   Unknown
10:35 AM 87.8 °F 92.6 °F 69.8 °F 55% 29.87 in 10.0 mi SSW 15.0 mph 23.0 mph N/A   Unknown
10:55 AM 87.8 °F 92.6 °F 69.8 °F 55% 29.87 in 10.0 mi SSW 12.7 mph 19.6 mph N/A   Unknown
11:15 AM 89.6 °F 94.7 °F 69.8 °F 52% 29.87 in 10.0 mi SSW 15.0 mph 20.7 mph N/A   Unknown
11:35 AM 89.6 °F 96.2 °F 71.6 °F 55% 29.87 in 10.0 mi SSW 15.0 mph 19.6 mph N/A   Unknown
11:55 AM 91.4 °F 96.8 °F 69.8 °F 49% 29.87 in 10.0 mi SSW 16.1 mph 19.6 mph N/A   Unknown
12:15 PM 91.4 °F 98.4 °F 71.6 °F 52% 29.87 in 10.0 mi SW 11.5 mph - N/A   Unknown
12:35 PM 91.4 °F 96.8 °F 69.8 °F 49% 29.88 in 10.0 mi SSW 11.5 mph - N/A   Unknown
12:55 PM 93.2 °F 98.8 °F 69.8 °F 46% 29.87 in 10.0 mi SW 11.5 mph 17.3 mph N/A   Unknown
1:15 PM 95.0 °F 101.3 °F 69.8 °F 44% 29.87 in 10.0 mi WSW 11.5 mph 18.4 mph N/A   Unknown
1:35 PM 95.0 °F 101.3 °F 69.8 °F 44% 29.87 in 10.0 mi SW 6.9 mph - N/A   Unknown
1:55 PM 95.0 °F 101.3 °F 69.8 °F 44% 29.87 in 10.0 mi SW 10.4 mph - N/A   Unknown
2:15 PM 96.8 °F 103.1 °F 69.8 °F 41% 29.86 in 10.0 mi SSW 9.2 mph - N/A   Unknown
2:35 PM 96.8 °F 103.1 °F 69.8 °F 41% 29.86 in 10.0 mi SSW 9.2 mph - N/A   Unknown
2:55 PM 96.8 °F 103.1 °F 69.8 °F 41% 29.85 in 10.0 mi SSW 9.2 mph 17.3 mph N/A   Unknown
3:15 PM 96.8 °F 101.8 °F 68.0 °F 39% 29.84 in 10.0 mi SW 9.2 mph - N/A   Unknown
3:35 PM 98.6 °F 104.1 °F 68.0 °F 37% 29.83 in 10.0 mi South 8.1 mph - N/A   Unknown
3:55 PM 98.6 °F 104.1 °F 68.0 °F 37% 29.82 in 10.0 mi South 8.1 mph - N/A   Unknown
4:15 PM 98.6 °F 104.1 °F 68.0 °F 37% 29.82 in 10.0 mi SSW 8.1 mph - N/A   Unknown
4:35 PM 98.6 °F 104.1 °F 68.0 °F 37% 29.81 in 10.0 mi South 11.5 mph - N/A   Unknown
4:55 PM 98.6 °F 104.1 °F 68.0 °F 37% 29.81 in 10.0 mi South 11.5 mph - N/A   Unknown
5:15 PM 98.6 °F 102.8 °F 66.2 °F 35% 29.80 in 10.0 mi South 10.4 mph - N/A   Unknown
5:35 PM 96.8 °F 99.0 °F 64.4 °F 34% 29.80 in 10.0 mi South 11.5 mph - N/A   Unknown
5:55 PM 98.6 °F 102.8 °F 66.2 °F 35% 29.79 in 10.0 mi SSE 9.2 mph - N/A   Unknown
6:15 PM 96.8 °F 100.7 °F 66.2 °F 37% 29.79 in 10.0 mi SSE 12.7 mph - N/A   Unknown
6:35 PM 96.8 °F 99.0 °F 64.4 °F 34% 29.78 in 10.0 mi SSE 9.2 mph - N/A   Unknown
6:55 PM 95.0 °F 98.5 °F 66.2 °F 39% 29.78 in 10.0 mi SSE 8.1 mph - N/A   Unknown
7:15 PM 95.0 °F 97.0 °F 64.4 °F 36% 29.78 in 10.0 mi SSE 9.2 mph - N/A   Unknown
7:35 PM 95.0 °F 97.0 °F 64.4 °F 36% 29.78 in 10.0 mi SSE 6.9 mph - N/A   Unknown
7:55 PM 91.4 °F 93.2 °F 64.4 °F 41% 29.78 in 10.0 mi SE 6.9 mph - N/A   Unknown
8:15 PM 89.6 °F 92.2 °F 66.2 °F 46% 29.79 in 10.0 mi SE 6.9 mph - N/A   Unknown
8:35 PM 89.6 °F 91.1 °F 64.4 °F 43% 29.79 in 10.0 mi SSE 6.9 mph - N/A   Unknown
8:55 PM 89.6 °F 91.1 °F 64.4 °F 43% 29.80 in 10.0 mi SSE 6.9 mph - N/A   Unknown
9:15 PM 87.8 °F 89.4 °F 64.4 °F 46% 29.81 in 10.0 mi SE 8.1 mph - N/A   Unknown
9:35 PM 87.8 °F 89.4 °F 64.4 °F 46% 29.81 in 10.0 mi SSE 6.9 mph - N/A   Unknown
9:55 PM 86.0 °F 87.3 °F 64.4 °F 48% 29.82 in 10.0 mi SE 4.6 mph - N/A   Unknown
10:15 PM 86.0 °F 87.3 °F 64.4 °F 48% 29.83 in 10.0 mi SSE 4.6 mph - N/A   Unknown
10:35 PM 84.2 °F 85.6 °F 64.4 °F 51% 29.84 in 10.0 mi SSE 6.9 mph - N/A   Unknown
10:55 PM 84.2 °F 85.6 °F 64.4 °F 51% 29.84 in 10.0 mi SSE 6.9 mph - N/A   Unknown
11:15 PM 84.2 °F 85.6 °F 64.4 °F 51% 29.84 in 10.0 mi SSE 9.2 mph - N/A   Unknown
11:35 PM 82.4 °F 84.6 °F 66.2 °F 58% 29.84 in 10.0 mi SSE 8.1 mph - N/A   Unknown
11:55 PM 82.4 °F 84.6 °F 66.2 °F 58% 29.84 in 10.0 mi SSE 6.9 mph - N/A   Unknown